| time (UTC) | temp F | wind direction | speed MPH | gust MPH | rain 1hr in | rain 24hr in | rain mn in | humidity % | barometer mb |
| 20260902104005 | 57 | 15 | 2.0 | 10.0 | 0.05 | 0.12 | 0.10 | 91 | 1003.9 |
| 20260902103504 | 57 | 39 | 1.0 | 8.0 | 0.06 | 0.12 | 0.10 | 92 | 1003.9 |
| 20260902103005 | 57 | 354 | 1.0 | 7.0 | 0.06 | 0.11 | 0.09 | 92 | 1004.0 |
| 20260902102502 | 57 | 11 | 1.0 | 7.0 | 0.07 | 0.11 | 0.09 | 92 | 1004.0 |
| 20260902102002 | 57 | 254 | 0.0 | 5.0 | 0.06 | 0.10 | 0.09 | 91 | 1004.0 |
| 20260902101501 | 57 | 101 | 0.0 | 6.0 | 0.07 | 0.10 | 0.09 | 91 | 1004.1 |
| 20260902101000 | 58 | 173 | 1.0 | 6.0 | 0.07 | 0.09 | 0.08 | 91 | 1004.0 |
| 20260902100502 | 58 | 38 | 0.0 | 8.0 | 0.07 | 0.09 | 0.08 | 91 | 1004.0 |
| 20260902100122 | 58 | 19 | 1.0 | 8.0 | 0.07 | 0.09 | 0.08 | 91 | 1004.1 |
| 20260902095559 | 58 | 221 | 1.0 | 4.0 | 0.08 | 0.09 | 0.08 | 91 | 1004.0 |
| 20260902095059 | 58 | 229 | 0.0 | 4.0 | 0.06 | 0.08 | 0.06 | 91 | 1004.1 |
| 20260902094558 | 58 | 61 | 0.0 | 4.0 | 0.06 | 0.08 | 0.06 | 91 | 1004.1 |
| 20260902094058 | 58 | 144 | 1.0 | 6.0 | 0.06 | 0.07 | 0.06 | 91 | 1004.0 |
| 20260902093558 | 58 | 2 | 0.0 | 6.0 | 0.05 | 0.06 | 0.05 | 91 | 1004.0 |
| 20260902093101 | 59 | 84 | 0.0 | 3.0 | 0.04 | 0.06 | 0.04 | 90 | 1004.1 |
| 20260902092557 | 59 | 254 | 0.0 | 3.0 | 0.02 | 0.04 | 0.02 | 90 | 1004.1 |
| 20260902092058 | 59 | 254 | 0.0 | 3.0 | 0.02 | 0.04 | 0.02 | 90 | 1004.1 |
| 20260902091607 | 59 | 256 | 0.0 | 3.0 | 0.02 | 0.03 | 0.02 | 90 | 1004.3 |
| 20260902091053 | 59 | 257 | 0.0 | 6.0 | 0.02 | 0.03 | 0.02 | 90 | 1004.3 |
| 20260902090553 | 59 | 106 | 1.0 | 4.0 | 0.01 | 0.02 | 0.01 | 89 | 1004.3 |
| 20260902090053 | 59 | 32 | 1.0 | 4.0 | 0.01 | 0.02 | 0.01 | 89 | 1004.3 |
| 20260902085554 | 59 | 144 | 0.0 | 3.0 | 0.00 | 0.02 | 0.00 | 89 | 1004.4 |
| 20260902085052 | 59 | 187 | 0.0 | 5.0 | 0.00 | 0.02 | 0.00 | 89 | 1004.4 |
| 20260902084552 | 59 | 4 | 2.0 | 5.0 | 0.00 | 0.02 | 0.00 | 89 | 1004.4 |
| 20260902084052 | 59 | 37 | 0.0 | 4.0 | 0.00 | 0.02 | 0.00 | 89 | 1004.4 |
| 20260902083551 | 59 | 121 | 0.0 | 4.0 | 0.00 | 0.02 | 0.00 | 89 | 1004.4 |
| 20260902083051 | 59 | 159 | 0.0 | 8.0 | 0.00 | 0.02 | 0.00 | 89 | 1004.4 |
| 20260902082554 | 59 | 140 | 2.0 | 8.0 | 0.00 | 0.02 | 0.00 | 89 | 1004.4 |
| 20260902082050 | 59 | 71 | 1.0 | 7.0 | 0.00 | 0.02 | 0.00 | 89 | 1004.4 |
| 20260902081549 | 59 | 150 | 0.0 | 5.0 | 0.00 | 0.02 | 0.00 | 89 | 1004.4 |
| 20260902081049 | 59 | 61 | 0.0 | 2.0 | 0.00 | 0.02 | 0.00 | 89 | 1004.4 |
| 20260902080548 | 59 | 117 | 0.0 | 4.0 | 0.00 | 0.02 | 0.00 | 89 | 1004.4 |
| 20260902080103 | 59 | 46 | 1.0 | 5.0 | 0.00 | 0.02 | 0.00 | 89 | 1004.4 |
| 20260902075547 | 59 | 337 | 0.0 | 7.0 | 0.00 | 0.02 | 0.00 | 89 | 1004.5 |
| 20260902075049 | 59 | 40 | 2.0 | 7.0 | 0.00 | 0.02 | 0.00 | 89 | 1004.5 |
| 20260902074549 | 59 | 348 | 1.0 | 3.0 | 0.00 | 0.02 | 0.00 | 89 | 1004.5 |
| 20260902074050 | 59 | 23 | 0.0 | 3.0 | 0.00 | 0.02 | 0.00 | 89 | 1004.5 |
| 20260902073546 | 59 | 48 | 1.0 | 3.0 | 0.00 | 0.02 | 0.00 | 89 | 1004.5 |
| 20260902073054 | 59 | 111 | 1.0 | 4.0 | 0.00 | 0.02 | 0.00 | 90 | 1004.5 |
| 20260902072548 | 59 | 210 | 0.0 | 4.0 | 0.01 | 0.02 | 0.00 | 89 | 1004.5 |
| 20260902072043 | 59 | 338 | 1.0 | 7.0 | 0.01 | 0.02 | 0.00 | 90 | 1004.5 |
| 20260902071556 | 59 | 5 | 0.0 | 7.0 | 0.01 | 0.02 | 0.00 | 90 | 1004.5 |
| 20260902071040 | 59 | 9 | 1.0 | 6.0 | 0.01 | 0.02 | 0.00 | 90 | 1004.5 |
| 20260902070539 | 59 | 346 | 1.0 | 7.0 | 0.01 | 0.02 | 0.00 | 90 | 1004.5 |
| 20260902070037 | 59 | 11 | 1.0 | 7.0 | 0.02 | 0.02 | 0.00 | 89 | 1004.6 |
| 20260902065536 | 59 | 319 | 1.0 | 4.0 | 0.02 | 0.02 | 0.02 | 89 | 1004.7 |
| 20260902065036 | 59 | 360 | 0.0 | 4.0 | 0.02 | 0.02 | 0.02 | 89 | 1004.7 |
| 20260902064537 | 59 | 352 | 0.0 | 5.0 | 0.02 | 0.02 | 0.02 | 89 | 1004.8 |
| 20260902064035 | 59 | 3 | 1.0 | 5.0 | 0.02 | 0.02 | 0.02 | 89 | 1004.8 |
| 20260902063536 | 59 | 10 | 0.0 | 2.0 | 0.02 | 0.02 | 0.02 | 89 | 1004.8 |
| 20260902063043 | 59 | 10 | 0.0 | 3.0 | 0.02 | 0.02 | 0.02 | 88 | 1004.8 |
| 20260902062535 | 59 | 10 | 0.0 | 3.0 | 0.01 | 0.01 | 0.01 | 87 | 1004.8 |
| 20260902062034 | 60 | 347 | 0.0 | 4.0 | 0.01 | 0.01 | 0.01 | 87 | 1004.8 |
| 20260902061544 | 60 | 348 | 0.0 | 4.0 | 0.01 | 0.01 | 0.01 | 86 | 1004.9 |
| 20260902061034 | 60 | 358 | 0.0 | 3.0 | 0.01 | 0.01 | 0.01 | 85 | 1004.9 |
| 20260902060533 | 60 | 352 | 0.0 | 3.0 | 0.01 | 0.01 | 0.01 | 84 | 1004.9 |
| 20260902060035 | 61 | 157 | 0.0 | 4.0 | 0.00 | 0.00 | 0.00 | 82 | 1004.9 |
| 20260902055535 | 61 | 46 | 0.0 | 4.0 | 0.00 | 0.00 | 0.00 | 81 | 1004.9 |
| 20260902055034 | 62 | 331 | 1.0 | 6.0 | 0.00 | 0.00 | 0.00 | 79 | 1005.0 |
| 20260902054542 | 62 | 138 | 1.0 | 6.0 | 0.00 | 0.00 | 0.00 | 77 | 1004.9 |
| 20260902054035 | 62 | 147 | 0.0 | 5.0 | 0.00 | 0.00 | 0.00 | 76 | 1005.0 |
| 20260902053534 | 62 | 147 | 1.0 | 5.0 | 0.00 | 0.00 | 0.00 | 76 | 1004.9 |
| 20260902053034 | 62 | 90 | 0.0 | 3.0 | 0.00 | 0.00 | 0.00 | 75 | 1004.9 |
| 20260902052534 | 62 | 34 | 0.0 | 3.0 | 0.00 | 0.00 | 0.00 | 75 | 1004.9 |
| 20260902052032 | 62 | 34 | 0.0 | 3.0 | 0.00 | 0.00 | 0.00 | 75 | 1004.9 |
| 20260902051532 | 62 | 27 | 0.0 | 3.0 | 0.00 | 0.00 | 0.00 | 75 | 1004.9 |
| 20260902051032 | 62 | 348 | 0.0 | 3.0 | 0.00 | 0.00 | 0.00 | 74 | 1004.9 |
| 20260902050532 | 62 | 348 | 0.0 | 3.0 | 0.00 | 0.00 | 0.00 | 74 | 1004.9 |
| 20260902050043 | 62 | 346 | 0.0 | 3.0 | 0.00 | 0.00 | 0.00 | 73 | 1004.9 |
| 20260902045532 | 62 | 346 | 0.0 | 7.0 | 0.00 | 0.00 | 0.00 | 73 | 1004.9 |
| 20260902045032 | 62 | 84 | 1.0 | 7.0 | 0.00 | 0.00 | 0.00 | 73 | 1005.0 |
| 20260902044533 | 62 | 73 | 0.0 | 4.0 | 0.00 | 0.00 | 0.00 | 73 | 1005.0 |
| 20260902044032 | 62 | 117 | 1.0 | 4.0 | 0.00 | 0.00 | 0.00 | 73 | 1005.0 |
| 20260902043531 | 62 | 2 | 1.0 | 4.0 | 0.00 | 0.00 | 0.00 | 73 | 1005.0 |
| 20260902043031 | 62 | 160 | 0.0 | 4.0 | 0.00 | 0.00 | 0.00 | 73 | 1005.1 |
| 20260902042533 | 62 | 194 | 0.0 | 3.0 | 0.00 | 0.00 | 0.00 | 73 | 1005.1 |
| 20260902042031 | 62 | 26 | 0.0 | 2.0 | 0.00 | 0.00 | 0.00 | 73 | 1005.1 |
| 20260902041539 | 62 | 26 | 0.0 | 2.0 | 0.00 | 0.00 | 0.00 | 73 | 1005.1 |
| 20260902041047 | 63 | 25 | 0.0 | 2.0 | 0.00 | 0.00 | 0.00 | 72 | 1005.2 |
| 20260902040546 | 63 | 25 | 1.0 | 2.0 | 0.00 | 0.00 | 0.00 | 72 | 1005.2 |
| 20260902040046 | 63 | 125 | 0.0 | 4.0 | 0.00 | 0.00 | 0.00 | 71 | 1005.2 |
| 20260902035548 | 63 | 146 | 1.0 | 5.0 | 0.00 | 0.00 | 0.00 | 71 | 1005.1 |
| 20260902035046 | 63 | 1 | 1.0 | 8.0 | 0.00 | 0.00 | 0.00 | 71 | 1005.0 |
| 20260902034545 | 63 | 36 | 2.0 | 8.0 | 0.00 | 0.00 | 0.00 | 71 | 1005.0 |
| 20260902034047 | 63 | 17 | 1.0 | 11.0 | 0.00 | 0.00 | 0.00 | 71 | 1004.9 |
| 20260902033545 | 63 | 30 | 4.0 | 15.0 | 0.00 | 0.00 | 0.00 | 70 | 1004.8 |
| 20260902033045 | 63 | 17 | 5.0 | 15.0 | 0.00 | 0.00 | 0.00 | 71 | 1004.8 |
| 20260902032545 | 63 | 19 | 3.0 | 9.0 | 0.00 | 0.00 | 0.00 | 71 | 1004.7 |
| 20260902032043 | 63 | 32 | 3.0 | 15.0 | 0.00 | 0.00 | 0.00 | 71 | 1004.7 |
| 20260902031544 | 63 | 286 | 5.0 | 15.0 | 0.00 | 0.00 | 0.00 | 71 | 1004.7 |
| 20260902031045 | 63 | 19 | 3.0 | 10.0 | 0.00 | 0.00 | 0.00 | 71 | 1004.7 |
| 20260902030545 | 63 | 352 | 1.0 | 4.0 | 0.00 | 0.00 | 0.00 | 71 | 1004.7 |
| 20260902030043 | 63 | 4 | 0.0 | 5.0 | 0.00 | 0.00 | 0.00 | 71 | 1004.7 |
| 20260902025542 | 63 | 197 | 0.0 | 5.0 | 0.00 | 0.00 | 0.00 | 71 | 1004.7 |
| 20260902025043 | 63 | 329 | 2.0 | 9.0 | 0.00 | 0.00 | 0.00 | 71 | 1004.6 |
| 20260902024545 | 63 | 150 | 1.0 | 9.0 | 0.00 | 0.00 | 0.00 | 71 | 1004.7 |
| 20260902024044 | 63 | 140 | 1.0 | 5.0 | 0.00 | 0.00 | 0.00 | 71 | 1004.7 |
| 20260902023543 | 63 | 175 | 0.0 | 4.0 | 0.00 | 0.00 | 0.00 | 71 | 1004.7 |
| 20260902023042 | 63 | 176 | 0.0 | 6.0 | 0.00 | 0.00 | 0.00 | 71 | 1004.8 |
| 20260902022542 | 63 | 9 | 1.0 | 6.0 | 0.00 | 0.00 | 0.00 | 72 | 1004.9 |
| 20260902022041 | 63 | 151 | 1.0 | 3.0 | 0.00 | 0.00 | 0.00 | 71 | 1004.8 |
| 20260902021549 | 63 | 22 | 0.0 | 3.0 | 0.00 | 0.00 | 0.00 | 71 | 1004.8 |
| 20260902021040 | 63 | 65 | 0.0 | 3.0 | 0.00 | 0.00 | 0.00 | 72 | 1004.8 |
| 20260902020541 | 63 | 65 | 0.0 | 3.0 | 0.00 | 0.00 | 0.00 | 71 | 1004.9 |
| 20260902020040 | 63 | 166 | 0.0 | 5.0 | 0.00 | 0.00 | 0.00 | 71 | 1004.9 |
| 20260902015543 | 63 | 168 | 2.0 | 5.0 | 0.00 | 0.00 | 0.00 | 72 | 1005.0 |
| 20260902015040 | 63 | 123 | 1.0 | 6.0 | 0.00 | 0.00 | 0.00 | 72 | 1005.0 |
| 20260902014544 | 63 | 111 | 0.0 | 2.0 | 0.00 | 0.00 | 0.00 | 72 | 1005.0 |
| 20260902014039 | 63 | 53 | 0.0 | 3.0 | 0.00 | 0.00 | 0.00 | 73 | 1005.0 |
| 20260902013539 | 63 | 46 | 0.0 | 4.0 | 0.00 | 0.00 | 0.00 | 72 | 1005.0 |
| 20260902013039 | 63 | 123 | 0.0 | 5.0 | 0.00 | 0.00 | 0.00 | 72 | 1005.0 |
| 20260902012540 | 64 | 187 | 1.0 | 5.0 | 0.00 | 0.00 | 0.00 | 72 | 1004.9 |
| 20260902012038 | 64 | 149 | 1.0 | 3.0 | 0.00 | 0.00 | 0.00 | 73 | 1004.9 |
| 20260902011547 | 64 | 132 | 0.0 | 3.0 | 0.00 | 0.00 | 0.00 | 73 | 1004.7 |
| 20260902011038 | 64 | 146 | 0.0 | 2.0 | 0.00 | 0.00 | 0.00 | 73 | 1004.7 |
| 20260902010639 | 64 | 146 | 0.0 | 4.0 | 0.00 | 0.00 | 0.00 | 73 | 1004.7 |
| 20260902010106 | 64 | 146 | 1.0 | 4.0 | 0.00 | 0.00 | 0.00 | 71 | 1004.6 |
| 20260902005535 | 64 | 233 | 0.0 | 4.0 | 0.00 | 0.00 | 0.00 | 71 | 1004.6 |
| 20260902005035 | 64 | 163 | 0.0 | 4.0 | 0.00 | 0.00 | 0.00 | 71 | 1004.6 |
| 20260902004535 | 65 | 86 | 1.0 | 4.0 | 0.00 | 0.00 | 0.00 | 72 | 1004.6 |
| 20260902004036 | 65 | 180 | 1.0 | 6.0 | 0.00 | 0.00 | 0.00 | 73 | 1004.5 |
| 20260902003534 | 65 | 52 | 1.0 | 6.0 | 0.00 | 0.00 | 0.00 | 72 | 1004.5 |
| 20260902003034 | 65 | 285 | 2.0 | 6.0 | 0.00 | 0.00 | 0.00 | 71 | 1004.4 |
| 20260902002536 | 66 | 317 | 1.0 | 5.0 | 0.00 | 0.00 | 0.00 | 71 | 1004.3 |
| 20260902002034 | 66 | 58 | 1.0 | 5.0 | 0.00 | 0.00 | 0.00 | 72 | 1004.4 |
| 20260902001533 | 65 | 152 | 1.0 | 4.0 | 0.00 | 0.00 | 0.00 | 73 | 1004.5 |
| 20260902001036 | 65 | 101 | 0.0 | 4.0 | 0.00 | 0.00 | 0.00 | 73 | 1004.5 |
| 20260902000634 | 65 | 116 | 1.0 | 4.0 | 0.00 | 0.00 | 0.00 | 74 | 1004.6 |
| 20260902000051 | 64 | 122 | 1.0 | 7.0 | 0.00 | 0.00 | 0.00 | 74 | 1004.6 |
| 20260901235550 | 64 | 24 | 1.0 | 7.0 | 0.00 | 0.00 | 0.00 | 74 | 1004.6 |
| 20260901235048 | 65 | 172 | 1.0 | 4.0 | 0.00 | 0.00 | 0.00 | 74 | 1004.7 |
| 20260901234551 | 65 | 52 | 1.0 | 4.0 | 0.00 | 0.00 | 0.00 | 73 | 1004.7 |
| 20260901234048 | 65 | 12 | 1.0 | 9.0 | 0.00 | 0.00 | 0.00 | 73 | 1004.6 |
| 20260901233548 | 65 | 176 | 1.0 | 9.0 | 0.00 | 0.00 | 0.00 | 72 | 1004.5 |
| 20260901233058 | 66 | 111 | 3.0 | 8.0 | 0.00 | 0.00 | 0.00 | 71 | 1004.5 |
| 20260901232547 | 66 | 159 | 1.0 | 4.0 | 0.00 | 0.00 | 0.00 | 71 | 1004.5 |
| 20260901232047 | 66 | 222 | 0.0 | 6.0 | 0.00 | 0.00 | 0.00 | 72 | 1004.5 |
| 20260901231554 | 66 | 171 | 2.0 | 6.0 | 0.00 | 0.00 | 0.00 | 71 | 1004.5 |
| 20260901231047 | 66 | 210 | 1.0 | 5.0 | 0.00 | 0.00 | 0.00 | 71 | 1004.5 |
| 20260901230648 | 66 | 179 | 2.0 | 5.0 | 0.00 | 0.00 | 0.00 | 71 | 1004.5 |
| 20260901230048 | 67 | 146 | 2.0 | 5.0 | 0.00 | 0.00 | 0.00 | 70 | 1004.6 |
| 20260901225548 | 67 | 207 | 0.0 | 6.0 | 0.00 | 0.00 | 0.00 | 69 | 1004.5 |
| 20260901225047 | 67 | 210 | 0.0 | 6.0 | 0.00 | 0.00 | 0.00 | 69 | 1004.5 |
| 20260901224547 | 67 | 4 | 1.0 | 5.0 | 0.00 | 0.00 | 0.00 | 69 | 1004.5 |
| 20260901224046 | 67 | 207 | 2.0 | 5.0 | 0.00 | 0.00 | 0.00 | 69 | 1004.5 |
| 20260901223546 | 67 | 162 | 1.0 | 6.0 | 0.00 | 0.00 | 0.00 | 68 | 1004.5 |
| 20260901223051 | 68 | 238 | 2.0 | 7.0 | 0.00 | 0.00 | 0.00 | 68 | 1004.6 |
| 20260901222548 | 68 | 151 | 3.0 | 7.0 | 0.00 | 0.00 | 0.00 | 66 | 1004.6 |
| 20260901222046 | 68 | 165 | 1.0 | 5.0 | 0.00 | 0.00 | 0.00 | 67 | 1004.7 |
| 20260901221544 | 67 | 319 | 1.0 | 5.0 | 0.00 | 0.00 | 0.00 | 67 | 1004.7 |
| 20260901221044 | 67 | 204 | 2.0 | 8.0 | 0.00 | 0.00 | 0.00 | 66 | 1004.7 |
| 20260901220643 | 67 | 202 | 2.0 | 8.0 | 0.00 | 0.00 | 0.00 | 66 | 1004.8 |
| 20260901220040 | 67 | 201 | 1.0 | 7.0 | 0.00 | 0.00 | 0.00 | 66 | 1004.9 |
| 20260901215538 | 67 | 227 | 0.0 | 7.0 | 0.00 | 0.00 | 0.00 | 66 | 1004.8 |
| 20260901215038 | 67 | 42 | 1.0 | 6.0 | 0.00 | 0.00 | 0.00 | 66 | 1004.8 |
| 20260901214537 | 68 | 193 | 1.0 | 6.0 | 0.00 | 0.00 | 0.00 | 65 | 1004.9 |
| 20260901214037 | 68 | 191 | 1.0 | 5.0 | 0.00 | 0.00 | 0.00 | 66 | 1004.9 |
| 20260901213540 | 68 | 64 | 1.0 | 4.0 | 0.00 | 0.00 | 0.00 | 66 | 1004.9 |
| 20260901213042 | 68 | 192 | 1.0 | 5.0 | 0.00 | 0.00 | 0.00 | 64 | 1004.9 |
| 20260901212537 | 67 | 204 | 2.0 | 5.0 | 0.00 | 0.00 | 0.00 | 65 | 1004.9 |
| 20260901212037 | 67 | 164 | 2.0 | 7.0 | 0.00 | 0.00 | 0.00 | 64 | 1004.9 |
| 20260901211537 | 67 | 150 | 2.0 | 7.0 | 0.00 | 0.00 | 0.00 | 66 | 1004.9 |
| 20260901211036 | 68 | 164 | 2.0 | 4.0 | 0.00 | 0.00 | 0.00 | 64 | 1004.9 |
| 20260901210636 | 68 | 150 | 0.0 | 4.0 | 0.00 | 0.00 | 0.00 | 67 | 1004.8 |
| 20260901210039 | 68 | 153 | 1.0 | 5.0 | 0.00 | 0.00 | 0.00 | 67 | 1004.8 |
| 20260901205535 | 68 | 140 | 2.0 | 5.0 | 0.00 | 0.00 | 0.00 | 65 | 1004.8 |
| 20260901205035 | 68 | 129 | 1.0 | 6.0 | 0.00 | 0.00 | 0.00 | 65 | 1004.8 |
| 20260901204537 | 68 | 52 | 0.0 | 6.0 | 0.00 | 0.00 | 0.00 | 67 | 1004.8 |
| 20260901204034 | 68 | 154 | 1.0 | 8.0 | 0.00 | 0.00 | 0.00 | 67 | 1004.8 |
| 20260901203537 | 69 | 79 | 1.0 | 8.0 | 0.00 | 0.00 | 0.00 | 68 | 1004.8 |
| 20260901203033 | 69 | 296 | 1.0 | 5.0 | 0.00 | 0.00 | 0.00 | 66 | 1004.9 |
| 20260901202533 | 69 | 47 | 2.0 | 5.0 | 0.00 | 0.00 | 0.00 | 65 | 1004.9 |
| 20260901202041 | 69 | 325 | 1.0 | 5.0 | 0.00 | 0.00 | 0.00 | 67 | 1004.9 |
| 20260901201533 | 69 | 130 | 1.0 | 5.0 | 0.00 | 0.00 | 0.00 | 65 | 1005.0 |
| 20260901201035 | 70 | 176 | 1.0 | 6.0 | 0.00 | 0.00 | 0.00 | 64 | 1005.0 |
| 20260901200637 | 70 | 176 | 2.0 | 6.0 | 0.00 | 0.00 | 0.00 | 63 | 1005.0 |
| 20260901200106 | 72 | 73 | 1.0 | 8.0 | 0.00 | 0.00 | 0.00 | 63 | 1005.0 |
| 20260901195556 | 70 | 141 | 2.0 | 8.0 | 0.00 | 0.00 | 0.00 | 65 | 1005.0 |
| 20260901195058 | 69 | 84 | 2.0 | 9.0 | 0.00 | 0.00 | 0.00 | 65 | 1004.9 |
| 20260901194602 | 70 | 223 | 4.0 | 9.0 | 0.00 | 0.00 | 0.00 | 63 | 1005.0 |
| 20260901194057 | 70 | 36 | 1.0 | 9.0 | 0.00 | 0.00 | 0.00 | 65 | 1005.0 |
| 20260901193553 | 69 | 125 | 0.0 | 9.0 | 0.00 | 0.00 | 0.00 | 66 | 1005.1 |
| 20260901193100 | 68 | 212 | 1.0 | 4.0 | 0.00 | 0.00 | 0.00 | 68 | 1005.1 |
| 20260901192552 | 68 | 145 | 1.0 | 4.0 | 0.00 | 0.00 | 0.00 | 67 | 1005.1 |
| 20260901192054 | 68 | 148 | 0.0 | 3.0 | 0.00 | 0.00 | 0.00 | 68 | 1005.1 |
| 20260901191551 | 68 | 69 | 0.0 | 6.0 | 0.00 | 0.00 | 0.00 | 69 | 1005.2 |
| 20260901191050 | 68 | 111 | 2.0 | 7.0 | 0.00 | 0.00 | 0.00 | 67 | 1005.2 |
| 20260901190551 | 68 | 125 | 0.0 | 4.0 | 0.00 | 0.00 | 0.00 | 67 | 1005.2 |
| 20260901185550 | 69 | 118 | 1.0 | 5.0 | 0.00 | 0.00 | 0.00 | 66 | 1005.2 |
| 20260901185050 | 68 | 148 | 2.0 | 6.0 | 0.00 | 0.00 | 0.00 | 69 | 1005.3 |
| 20260901184650 | 67 | 121 | 2.0 | 6.0 | 0.00 | 0.00 | 0.00 | 69 | 1005.3 |
| 20260901184050 | 68 | 206 | 2.0 | 5.0 | 0.00 | 0.00 | 0.00 | 69 | 1005.2 |
| 20260901183549 | 68 | 139 | 2.0 | 7.0 | 0.00 | 0.00 | 0.00 | 68 | 1005.3 |
| 20260901183050 | 69 | 142 | 1.0 | 7.0 | 0.00 | 0.00 | 0.00 | 66 | 1005.3 |
| 20260901182551 | 68 | 61 | 2.0 | 7.0 | 0.00 | 0.00 | 0.00 | 66 | 1005.3 |
| 20260901182048 | 68 | 154 | 1.0 | 7.0 | 0.00 | 0.00 | 0.00 | 69 | 1005.3 |
| 20260901181549 | 68 | 150 | 2.0 | 8.0 | 0.00 | 0.00 | 0.00 | 69 | 1005.2 |
| 20260901181047 | 68 | 158 | 2.0 | 8.0 | 0.00 | 0.00 | 0.00 | 70 | 1005.4 |
| 20260901180648 | 68 | 234 | 2.0 | 8.0 | 0.00 | 0.00 | 0.00 | 70 | 1005.4 |
| 20260901180054 | 68 | 214 | 3.0 | 9.0 | 0.00 | 0.00 | 0.00 | 69 | 1005.4 |
| 20260901175553 | 69 | 192 | 1.0 | 4.0 | 0.00 | 0.00 | 0.00 | 68 | 1005.3 |
| 20260901175052 | 68 | 36 | 1.0 | 8.0 | 0.00 | 0.00 | 0.00 | 70 | 1005.4 |
| 20260901174602 | 68 | 93 | 1.0 | 9.0 | 0.00 | 0.00 | 0.00 | 69 | 1005.4 |
| 20260901174050 | 67 | 217 | 3.0 | 9.0 | 0.00 | 0.00 | 0.00 | 73 | 1005.3 |
| 20260901173549 | 66 | 171 | 1.0 | 3.0 | 0.00 | 0.00 | 0.00 | 73 | 1005.2 |
| 20260901173049 | 66 | 172 | 1.0 | 3.0 | 0.00 | 0.00 | 0.00 | 74 | 1005.3 |
| 20260901172547 | 66 | 243 | 0.0 | 3.0 | 0.00 | 0.00 | 0.00 | 73 | 1005.4 |
| 20260901172046 | 66 | 101 | 0.0 | 5.0 | 0.00 | 0.00 | 0.00 | 74 | 1005.4 |
| 20260901171544 | 64 | 273 | 1.0 | 5.0 | 0.00 | 0.00 | 0.00 | 76 | 1005.4 |
| 20260901171043 | 64 | 286 | 1.0 | 6.0 | 0.00 | 0.00 | 0.00 | 77 | 1005.4 |
| 20260901170645 | 64 | 214 | 1.0 | 6.0 | 0.00 | 0.00 | 0.00 | 77 | 1005.5 |
| 20260901170138 | 63 | 159 | 2.0 | 6.0 | 0.00 | 0.00 | 0.00 | 77 | 1005.6 |
| 20260901165549 | 63 | 149 | 2.0 | 4.0 | 0.00 | 0.00 | 0.00 | 77 | 1005.6 |
| 20260901165048 | 63 | 155 | 1.0 | 4.0 | 0.00 | 0.00 | 0.00 | 78 | 1005.6 |
| 20260901164545 | 63 | 151 | 2.0 | 4.0 | 0.00 | 0.00 | 0.00 | 77 | 1005.7 |
| 20260901164044 | 63 | 207 | 0.0 | 3.0 | 0.00 | 0.00 | 0.00 | 79 | 1005.7 |
| 20260901163543 | 62 | 34 | 0.0 | 2.0 | 0.00 | 0.00 | 0.00 | 79 | 1005.7 |
| 20260901163044 | 62 | 25 | 0.0 | 2.0 | 0.00 | 0.00 | 0.00 | 79 | 1005.7 |
| 20260901162544 | 62 | 24 | 0.0 | 2.0 | 0.00 | 0.00 | 0.00 | 79 | 1005.8 |
| 20260901162042 | 62 | 23 | 0.0 | 0.0 | 0.00 | 0.00 | 0.00 | 80 | 1005.8 |
| 20260901161546 | 61 | 23 | 0.0 | 2.0 | 0.00 | 0.00 | 0.00 | 80 | 1005.8 |
| 20260901161038 | 61 | 23 | 0.0 | 2.0 | 0.00 | 0.00 | 0.00 | 79 | 1005.7 |
| 20260901160638 | 61 | 23 | 0.0 | 2.0 | 0.00 | 0.00 | 0.00 | 80 | 1005.8 |
| 20260901160045 | 60 | 23 | 0.0 | 2.0 | 0.00 | 0.00 | 0.00 | 80 | 1005.8 |
| 20260901155543 | 60 | 23 | 0.0 | 1.0 | 0.00 | 0.00 | 0.00 | 81 | 1005.8 |
| 20260901155044 | 60 | 23 | 0.0 | 1.0 | 0.00 | 0.00 | 0.00 | 81 | 1005.8 |
| 20260901154542 | 59 | 23 | 0.0 | 1.0 | 0.00 | 0.00 | 0.00 | 82 | 1005.9 |
| 20260901154041 | 59 | 23 | 0.0 | 1.0 | 0.00 | 0.00 | 0.00 | 83 | 1005.8 |
| 20260901153540 | 59 | 23 | 0.0 | 1.0 | 0.00 | 0.00 | 0.00 | 83 | 1005.8 |
| 20260901153058 | 59 | 23 | 0.0 | 1.0 | 0.00 | 0.00 | 0.00 | 84 | 1005.8 |
| 20260901152538 | 58 | 23 | 0.0 | 3.0 | 0.00 | 0.00 | 0.00 | 84 | 1005.6 |
| 20260901152037 | 58 | 23 | 0.0 | 3.0 | 0.00 | 0.00 | 0.00 | 84 | 1005.6 |
| 20260901151536 | 57 | 23 | 0.0 | 0.0 | 0.00 | 0.00 | 0.00 | 85 | 1005.5 |
| 20260901151035 | 57 | 23 | 0.0 | 0.0 | 0.00 | 0.00 | 0.00 | 86 | 1005.5 |
| 20260901150537 | 56 | 23 | 0.0 | 0.0 | 0.00 | 0.00 | 0.00 | 86 | 1005.5 |
| 20260901150033 | 56 | 23 | 0.0 | 0.0 | 0.00 | 0.00 | 0.00 | 86 | 1005.3 |
| 20260901145532 | 56 | 23 | 0.0 | 0.0 | 0.00 | 0.00 | 0.00 | 86 | 1005.3 |
| 20260901145032 | 56 | 23 | 0.0 | 0.0 | 0.00 | 0.00 | 0.00 | 86 | 1005.2 |
| 20260901144529 | 56 | 23 | 0.0 | 0.0 | 0.00 | 0.00 | 0.00 | 86 | 1005.2 |
| 20260901144029 | 56 | 23 | 0.0 | 0.0 | 0.00 | 0.00 | 0.00 | 86 | 1005.1 |
| 20260901143528 | 56 | 23 | 0.0 | 0.0 | 0.00 | 0.00 | 0.00 | 85 | 1005.0 |
| 20260901143028 | 56 | 23 | 0.0 | 0.0 | 0.00 | 0.00 | 0.00 | 85 | 1005.1 |
| 20260901142528 | 56 | 23 | 0.0 | 0.0 | 0.00 | 0.00 | 0.00 | 85 | 1005.1 |
| 20260901142027 | 56 | 23 | 0.0 | 0.0 | 0.00 | 0.00 | 0.00 | 85 | 1005.0 |
| 20260901141536 | 56 | 23 | 0.0 | 0.0 | 0.00 | 0.00 | 0.00 | 86 | 1005.1 |
| 20260901141026 | 55 | 23 | 0.0 | 0.0 | 0.00 | 0.00 | 0.00 | 86 | 1005.2 |
| 20260901140529 | 55 | 23 | 0.0 | 0.0 | 0.00 | 0.00 | 0.00 | 85 | 1005.1 |
| 20260901140029 | 55 | 23 | 0.0 | 0.0 | 0.00 | 0.00 | 0.00 | 85 | 1005.1 |
| 20260901135526 | 55 | 23 | 0.0 | 0.0 | 0.00 | 0.00 | 0.00 | 85 | 1005.0 |
| 20260901135028 | 55 | 23 | 0.0 | 0.0 | 0.00 | 0.00 | 0.00 | 85 | 1005.0 |
| 20260901134523 | 56 | 23 | 0.0 | 0.0 | 0.00 | 0.00 | 0.00 | 85 | 1005.1 |
| 20260901134022 | 56 | 23 | 0.0 | 0.0 | 0.00 | 0.00 | 0.00 | 84 | 1005.1 |
| 20260901133522 | 56 | 23 | 0.0 | 0.0 | 0.00 | 0.00 | 0.00 | 84 | 1005.0 |
| 20260901133022 | 56 | 23 | 0.0 | 0.0 | 0.00 | 0.00 | 0.00 | 84 | 1005.0 |
| 20260901132521 | 56 | 23 | 0.0 | 0.0 | 0.00 | 0.00 | 0.00 | 84 | 1004.9 |
| 20260901132021 | 56 | 23 | 0.0 | 0.0 | 0.00 | 0.00 | 0.00 | 84 | 1004.9 |
| 20260901131531 | 56 | 23 | 0.0 | 0.0 | 0.00 | 0.00 | 0.00 | 84 | 1004.9 |
| 20260901131020 | 56 | 23 | 0.0 | 0.0 | 0.00 | 0.00 | 0.00 | 84 | 1004.7 |
| 20260901130520 | 56 | 23 | 0.0 | 0.0 | 0.00 | 0.00 | 0.00 | 83 | 1004.8 |
| 20260901130018 | 56 | 23 | 0.0 | 0.0 | 0.00 | 0.00 | 0.00 | 84 | 1004.7 |
| 20260901125518 | 57 | 23 | 0.0 | 0.0 | 0.00 | 0.00 | 0.00 | 84 | 1004.7 |
| 20260901125018 | 57 | 23 | 0.0 | 0.0 | 0.00 | 0.00 | 0.00 | 84 | 1004.8 |
| 20260901124517 | 57 | 23 | 0.0 | 0.0 | 0.00 | 0.00 | 0.00 | 83 | 1004.8 |
| 20260901124019 | 57 | 23 | 0.0 | 0.0 | 0.00 | 0.00 | 0.00 | 83 | 1004.9 |
| 20260901123516 | 57 | 23 | 0.0 | 0.0 | 0.00 | 0.00 | 0.00 | 83 | 1004.9 |
| 20260901123017 | 57 | 23 | 0.0 | 0.0 | 0.00 | 0.00 | 0.00 | 83 | 1004.9 |
| 20260901122516 | 57 | 23 | 0.0 | 0.0 | 0.00 | 0.00 | 0.00 | 82 | 1005.0 |
| 20260901122016 | 57 | 23 | 0.0 | 0.0 | 0.00 | 0.00 | 0.00 | 83 | 1004.9 |
| 20260901121521 | 57 | 23 | 0.0 | 0.0 | 0.00 | 0.00 | 0.00 | 83 | 1005.0 |
| 20260901121016 | 57 | 23 | 0.0 | 0.0 | 0.00 | 0.00 | 0.00 | 82 | 1005.0 |
| 20260901120516 | 57 | 23 | 0.0 | 0.0 | 0.00 | 0.00 | 0.00 | 82 | 1005.0 |
| 20260901120015 | 57 | 23 | 0.0 | 0.0 | 0.00 | 0.00 | 0.00 | 83 | 1005.1 |
| 20260901115517 | 57 | 23 | 0.0 | 0.0 | 0.00 | 0.00 | 0.00 | 83 | 1005.1 |
| 20260901115015 | 57 | 23 | 0.0 | 0.0 | 0.00 | 0.00 | 0.00 | 83 | 1005.2 |
| 20260901114514 | 57 | 23 | 0.0 | 0.0 | 0.00 | 0.00 | 0.00 | 83 | 1005.1 |
| 20260901114014 | 57 | 23 | 0.0 | 0.0 | 0.00 | 0.00 | 0.00 | 83 | 1005.1 |
| 20260901113514 | 57 | 23 | 0.0 | 0.0 | 0.00 | 0.00 | 0.00 | 83 | 1005.1 |
| 20260901113014 | 57 | 23 | 0.0 | 0.0 | 0.00 | 0.00 | 0.00 | 83 | 1005.1 |
| 20260901112513 | 57 | 23 | 0.0 | 0.0 | 0.00 | 0.00 | 0.00 | 84 | 1005.0 |
| 20260901112013 | 57 | 23 | 0.0 | 0.0 | 0.00 | 0.00 | 0.00 | 84 | 1005.0 |
| 20260901111513 | 57 | 23 | 0.0 | 0.0 | 0.00 | 0.00 | 0.00 | 84 | 1005.0 |
| 20260901111013 | 56 | 23 | 0.0 | 0.0 | 0.00 | 0.00 | 0.00 | 84 | 1004.9 |
| 20260901110512 | 57 | 23 | 0.0 | 0.0 | 0.00 | 0.00 | 0.00 | 84 | 1004.9 |
| 20260901110018 | 57 | 23 | 0.0 | 0.0 | 0.00 | 0.00 | 0.00 | 84 | 1004.9 |
| 20260901105514 | 57 | 23 | 0.0 | 0.0 | 0.00 | 0.00 | 0.00 | 83 | 1004.9 |
| 20260901105011 | 57 | 23 | 0.0 | 0.0 | 0.00 | 0.00 | 0.00 | 83 | 1004.8 |
| 20260901104520 | 57 | 23 | 0.0 | 2.0 | 0.00 | 0.00 | 0.00 | 83 | 1004.8 |